EW1869 Weather Reports


time (UTC)temp
C
wind
direction
speed
KPH
gust
KPH
rain 1hr
cm
rain 24hr
cm
rain mn
cm
humidity
%
barometer
mb
20260506154005 7 138 0.0 1.6 0.00 0.00 0.00 95 1021.6
20260506153005 7 113 0.0 0.0 0.00 0.00 0.00 95 1021.6
20260506152004 7 116 0.0 1.6 0.00 0.00 0.00 95 1021.6
20260506145005 6 113 0.0 0.0 0.00 0.00 0.00 95 1021.5
20260506144005 6 113 0.0 0.0 0.00 0.00 0.00 95 1021.5
20260506143004 6 110 0.0 0.0 0.00 0.00 0.00 95 1021.3
20260506142005 6 124 0.0 0.0 0.00 0.00 0.00 95 1021.2
20260506141004 6 124 0.0 0.0 0.00 0.00 0.00 95 1021.0
20260506135004 5 123 0.0 0.0 0.00 0.00 0.00 95 1020.9
20260506134003 4 123 0.0 0.0 0.00 0.00 0.00 95 1020.9
20260506133004 4 123 0.0 0.0 0.00 0.00 0.00 95 1020.7
20260506132005 4 122 0.0 0.0 0.00 0.00 0.00 95 1020.8
20260506131004 4 123 0.0 0.0 0.00 0.00 0.00 95 1020.6
20260506130006 4 123 0.0 0.0 0.00 0.00 0.00 95 1020.6
20260506125004 4 123 0.0 0.0 0.00 0.00 0.00 95 1020.6
20260506124004 5 123 0.0 0.0 0.00 0.00 0.00 95 1020.5
20260506123005 5 122 0.0 0.0 0.00 0.00 0.00 95 1020.6
20260506122006 5 122 0.0 0.0 0.00 0.00 0.00 95 1020.4
20260506121004 5 123 0.0 0.0 0.00 0.00 0.00 95 1020.4
20260506120004 5 122 0.0 0.0 0.00 0.00 0.00 95 1020.3
20260506114004 5 123 0.0 0.0 0.00 0.00 0.00 95 1020.3
20260506112004 5 123 0.0 0.0 0.00 0.00 0.00 95 1020.3
20260506110959 5 123 0.0 1.6 0.00 0.00 0.00 95 1020.2
20260506110005 5 123 0.0 0.0 0.00 0.00 0.00 95 1020.1
20260506105004 5 123 0.0 0.0 0.00 0.00 0.00 95 1020.1
20260506104005 5 122 0.0 0.0 0.00 0.00 0.00 95 1020.1
20260506102004 5 123 0.0 0.0 0.00 0.00 0.00 95 1019.8
20260506101004 5 122 0.0 0.0 0.00 0.00 0.00 95 1019.8
20260506100005 5 123 0.0 0.0 0.00 0.00 0.00 95 1019.6
20260506095004 5 123 0.0 0.0 0.00 0.00 0.00 94 1019.5
20260506093008 5 123 0.0 0.0 0.00 0.00 0.00 94 1019.4
20260506092004 5 123 0.0 0.0 0.00 0.00 0.00 94 1019.4
20260506090005 5 123 0.0 1.6 0.00 0.00 0.00 94 1019.4
20260506083337 5 127 0.0 0.0 0.00 0.00 0.00 94 1019.7
20260506082003 5 127 0.0 0.0 0.00 0.00 0.00 94 1019.7
20260506081005 5 127 0.0 0.0 0.00 0.00 0.00 94 1019.8
20260506072004 5 128 0.0 0.0 0.00 0.00 0.00 94 1019.6
20260506071004 5 127 0.0 0.0 0.00 0.00 0.00 94 1019.9
20260506061005 6 127 0.0 0.0 0.00 0.10 0.00 94 1018.9
20260506051005 6 127 0.0 0.0 0.00 0.15 0.00 94 1018.4
20260506045004 6 127 0.0 0.0 0.00 0.20 0.00 94 1018.1
20260506043005 6 125 0.0 0.0 0.00 0.20 0.00 94 1018.2
20260506042006 6 129 0.0 0.0 0.00 0.20 0.00 94 1018.1
20260506041005 6 129 0.0 0.0 0.00 0.20 0.00 94 1017.9
20260506040005 6 129 0.0 1.6 0.00 0.20 0.00 94 1017.8
20260506035005 6 129 0.0 0.0 0.00 0.20 0.00 94 1017.7
20260506034005 6 129 0.0 0.0 0.00 0.20 0.00 94 1017.7
20260506033006 6 129 0.0 0.0 0.00 0.20 0.00 94 1017.5
20260506032005 6 129 0.0 0.0 0.00 0.20 0.00 94 1017.2
20260506031004 6 129 0.0 0.0 0.00 0.20 0.00 94 1017.1
20260506025001 6 129 0.0 0.0 0.00 0.20 0.00 94 1017.0
20260506023005 6 129 0.0 0.0 0.00 0.20 0.00 94 1016.9
20260506022005 6 129 0.0 0.0 0.00 0.20 0.00 94 1017.0
20260506021001 6 129 0.0 0.0 0.00 0.20 0.00 94 1016.8
20260506020001 6 129 0.0 1.6 0.00 0.20 0.00 94 1016.9
20260506015004 6 102 0.0 0.0 0.00 0.20 0.00 94 1016.8
20260506013000 6 115 0.0 1.6 0.00 0.20 0.00 94 1016.8
20260506012005 6 114 0.0 1.6 0.00 0.20 0.00 94 1016.7
20260506011004 6 114 0.0 0.0 0.00 0.20 0.00 94 1016.7
20260506010004 6 116 0.0 1.6 0.00 0.20 0.00 94 1016.6
20260506005000 6 132 0.0 1.6 0.00 0.20 0.00 94 1016.5
20260506004004 6 132 0.0 1.6 0.00 0.20 0.00 94 1016.5
20260506003004 6 124 0.0 1.6 0.00 0.20 0.00 94 1016.4
20260506001004 6 62 0.0 1.6 0.00 0.20 0.00 94 1016.3
20260506000005 6 319 0.0 1.6 0.00 0.20 0.00 94 1016.3
20260505235004 6 309 0.0 3.2 0.00 0.20 0.00 94 1016.2
20260505234005 6 142 0.0 3.2 0.00 0.20 0.00 94 1016.0
20260505233001 6 102 0.0 3.2 0.00 0.20 0.00 94 1016.0
20260505232005 6 123 0.0 1.6 0.00 0.20 0.00 94 1015.9
20260505231004 7 122 0.0 1.6 0.00 0.20 0.00 94 1015.8
20260505230004 7 300 0.0 1.6 0.00 0.20 0.00 94 1015.8
20260505225005 6 334 0.0 1.6 0.00 0.28 0.00 94 1015.8
20260505223005 6 120 0.0 1.6 0.00 0.28 0.00 94 1015.9
20260505222004 6 131 0.0 1.6 0.00 0.28 0.00 94 1015.8
20260505220007 6 116 0.0 1.6 0.00 0.28 0.00 94 1016.0
20260505213005 6 93 0.0 1.6 0.00 0.38 0.00 94 1016.0
20260505212005 6 39 0.0 3.2 0.00 0.38 0.00 94 1016.1
20260505211005 6 43 0.0 1.6 0.00 0.38 0.00 94 1016.0
20260505210006 6 122 0.0 1.6 0.00 0.38 0.00 94 1016.0
20260505205003 6 76 0.0 3.2 0.00 0.48 0.00 94 1015.8
20260505204005 6 25 0.0 1.6 0.00 0.48 0.00 94 1015.8
20260505203004 6 44 0.0 1.6 0.00 0.48 0.00 94 1015.9
20260505202004 6 65 0.0 1.6 0.00 0.48 0.00 94 1015.8
20260505201004 6 129 0.0 3.2 0.00 0.48 0.00 94 1015.8
20260505200005 6 105 0.0 1.6 0.00 0.48 0.00 94 1015.8
20260505195011 6 20 0.0 3.2 0.00 0.48 0.00 94 1015.8
20260505193004 6 41 0.0 1.6 0.00 0.48 0.00 94 1015.8
20260505192005 6 16 0.0 3.2 0.00 0.48 0.00 94 1015.6
20260505191004 6 44 0.0 1.6 0.00 0.48 0.00 94 1015.6
20260505190005 6 76 0.0 3.2 0.00 0.48 0.00 94 1015.5
20260505185005 6 300 0.0 4.8 0.00 0.48 0.00 93 1015.3
20260505184005 6 65 0.0 3.2 0.00 0.48 0.00 93 1015.4
20260505183006 6 245 0.0 1.6 0.00 0.48 0.00 93 1015.5
20260505182005 6 269 0.0 1.6 0.00 0.48 0.00 93 1015.3
20260505181004 6 270 1.6 3.2 0.00 0.48 0.00 93 1015.1
20260505180005 6 247 0.0 4.8 0.00 0.48 0.00 93 1015.0
20260505174004 6 287 0.0 3.2 0.00 0.58 0.00 94 1014.8
20260505172004 6 46 0.0 1.6 0.00 0.58 0.00 94 1014.8
20260505171004 5 67 0.0 1.6 0.00 0.58 0.00 94 1014.8
20260505170005 5 51 0.0 1.6 0.00 0.58 0.00 94 1014.6
20260505165004 5 133 0.0 1.6 0.00 0.64 0.00 94 1014.6
20260505164004 5 132 0.0 1.6 0.00 0.64 0.00 95 1014.6
20260505163007 4 184 0.0 0.0 0.00 0.64 0.00 94 1014.5
20260505162005 4 183 0.0 1.6 0.00 0.64 0.00 94 1014.5
20260505161005 4 183 0.0 1.6 0.00 0.64 0.00 94 1014.4